This is the latest recevied weather packets stored in our database for station/object WA4IKQ. If no packets are shown the sender has not sent any weather packets the latest 10 day(s).
| Time | Temp. | Humidity | Pressure | Rain* | Wind** | Luminosity | Snow |
|---|---|---|---|---|---|---|---|
| 1777989023 | 25.56° C | 66% | 1016.6 hPa | 0 mm | 1.79 m/s, 98° | - | - |
| 1777988991 | 25.56° C | 67% | 1016.7 hPa | 0 mm | 2.24 m/s, 52° | - | - |
| 1777988918 | 25.56° C | 67% | 1016.7 hPa | 0 mm | 2.24 m/s, 52° | - | - |
| 1777988728 | 25.56° C | 67% | 1016.7 hPa | 0 mm | 2.24 m/s, 52° | - | - |
| 1777988617 | 25° C | 68% | 1016.7 hPa | 0 mm | 2.24 m/s, 73° | - | - |
| 1777988423 | 25° C | 68% | 1016.7 hPa | 0 mm | 2.24 m/s, 73° | - | - |
| 1777988393 | 25° C | 69% | 1016.6 hPa | 0 mm | 2.24 m/s, 45° | - | - |
| 1777988124 | 25° C | 69% | 1016.6 hPa | 0 mm | 2.24 m/s, 45° | - | - |
| 1777988005 | 25° C | 70% | 1016.6 hPa | 0 mm | 3.58 m/s, 53° | - | - |
| 1777987965 | 25° C | 70% | 1016.6 hPa | 0 mm | 3.58 m/s, 53° | - | - |
| 1777987822 | 25° C | 70% | 1016.6 hPa | 0 mm | 3.58 m/s, 53° | - | - |
| 1777987523 | 24.44° C | 70% | 1016.7 hPa | 0 mm | 1.34 m/s, 51° | - | - |
| 1777987220 | 24.44° C | 72% | 1016.7 hPa | 0 mm | 1.79 m/s, 82° | - | - |
| 1777986920 | 24.44° C | 72% | 1016.7 hPa | 0 mm | 1.79 m/s, 82° | - | - |
| 1777986906 | 23.89° C | 72% | 1016.7 hPa | 0 mm | 1.79 m/s, 10° | - | - |
| 1777986758 | 23.89° C | 72% | 1016.7 hPa | 0 mm | 1.79 m/s, 10° | - | - |
| 1777986621 | 23.89° C | 72% | 1016.7 hPa | 0 mm | 1.79 m/s, 10° | - | - |
| 1777986512 | 23.89° C | 74% | 1016.5 hPa | 0 mm | 0.89 m/s, 82° | - | - |
| 1777986321 | 23.89° C | 74% | 1016.5 hPa | 0 mm | 0.89 m/s, 82° | - | - |
| 1777985899 | 23.33° C | 76% | 1016.3 hPa | 0 mm | 2.24 m/s, 11° | - | - |
| 1777985722 | 23.33° C | 76% | 1016.3 hPa | 0 mm | 2.24 m/s, 11° | - | - |
| 1777985709 | 22.78° C | 78% | 1016.2 hPa | 0 mm | 1.34 m/s, 41° | - | - |
| 1777985422 | 22.78° C | 78% | 1016.2 hPa | 0 mm | 1.34 m/s, 41° | - | - |
| 1777985063 | 22.22° C | 79% | 1016.3 hPa | 0 mm | 1.34 m/s, 42° | - | - |
| 1777985022 | 22.22° C | 79% | 1016.3 hPa | 0 mm | 1.34 m/s, 42° | - | - |
* Rain latest hour (hover to see other rain measurements)
** Current wind speed in m/s (hover to see current wind gust speed)